Theta_e
324 324 325 325 324 319 314 312 310 304 305 308 308 311 311 309 308 306 304 306 304 303 303 305 307 308 308 308 308 307 306 305 304 304 304 303 303 303
325 323 323 325 326 323 315 313 312 310 308 312 309 308 311 311 308 307 304 305 303 301 301 302 303 305 305 305 305 305 305 304 303 303 303 303 303 303
327 325 324 326 325 322 316 313 312 310 310 310 310 308 308 308 307 306 305 303 303 301 300 299 300 301 301 302 302 302 303 303 303 303 302 302 302 302
327 327 326 327 326 322 318 315 314 312 311 310 309 307 307 307 305 304 304 302 301 301 299 298 298 298 298 299 299 299 299 300 301 301 302 301 300 300
328 327 327 327 325 323 319 316 315 314 312 310 309 308 308 306 303 304 302 303 302 302 299 298 297 297 297 297 297 297 297 297 297 297 297 298 298 299
329 328 328 327 327 325 322 318 316 313 313 310 307 305 306 306 304 303 302 304 302 304 301 298 297 297 297 297 296 296 296 296 296 296 295 294 294 295
328 329 329 325 317 320 324 321 317 314 312 313 308 306 306 305 305 305 305 304 304 305 301 301 297 295 295 297 296 297 296 295 295 296 296 295 294 294
327 327 328 314 312 306 307 307 314 315 312 313 312 310 310 307 307 304 304 302 300 305 302 300 299 296 296 295 296 295 295 295 295 295 295 295 295 294
325 326 326 326 313 318 304 302 302 302 309 315 312 312 312 311 309 306 305 304 304 304 304 299 296 297 296 297 296 295 295 295 295 294 294 294 293 293
324 325 325 326 321 320 319 313 311 309 307 309 316 315 316 314 312 311 309 306 302 302 302 294 296 293 295 295 296 296 295 295 294 294 294 293 292 292
324 324 325 325 312 305 319 316 313 309 296 297 299 303 301 301 307 309 305 303 296 296 297 297 294 292 293 292 294 294 294 294 294 293 292 292 291 291
321 323 304 319 299 299 321 318 314 313 303 298 300 301 301 303 298 310 308 303 293 291 296 295 291 291 286 286 290 291 289 291 291 292 292 292 291 288
321 318 319 300 298 298 307 317 316 309 298 303 301 302 301 303 306 308 308 307 297 295 297 294 290 289 284 283 284 287 288 289 290 291 292 292 292 292
319 319 318 298 297 298 301 300 296 297 298 296 296 295 297 299 300 302 302 302 303 300 298 296 291 290 284 281 283 285 286 288 288 288 289 292 292 292
320 312 302 296 298 297 297 295 293 300 295 294 295 296 295 297 299 296 296 297 296 297 297 294 292 288 286 285 283 284 284 285 286 286 288 288 288 288
293 298 297 296 295 295 292 293 299 299 297 297 298 296 296 297 294 294 290 290 290 289 292 293 292 290 284 284 284 284 283 282 285 286 286 287 288 288
292 295 295 294 293 294 293 294 295 295 296 296 295 295 296 295 294 293 291 289 288 287 287 289 290 288 285 285 282 284 283 284 284 285 286 284 285 286
291 291 291 293 294 294 293 293 295 293 295 296 296 296 295 294 292 292 291 288 287 286 286 286 286 286 286 287 289 282 283 282 284 285 284 281 282 286
288 288 288 288 290 292 292 292 290 293 293 295 295 294 293 292 290 288 287 287 286 286 287 287 286 284 281 283 284 288 284 283 281 280 281 280 280 285
288 287 287 287 288 288 289 289 290 290 290 290 289 290 290 289 288 287 287 287 286 285 285 286 286 284 285 284 284 287 288 286 282 280 280 282 284 286
287 286 286 287 287 287 288 288 288 287 287 288 288 288 288 288 287 287 287 286 286 285 285 285 288 287 289 288 285 285 287 287 287 284 283 280 280 279
286 288 289 288 287 288 287 287 287 287 286 287 287 287 287 288 287 287 287 287 286 286 286 287 289 288 287 286 284 284 284 285 286 286 286 285 280 275
288 288 289 289 290 289 289 288 287 287 287 287 287 287 286 287 287 287 287 287 287 286 286 285 287 286 285 285 284 283 284 283 283 283 284 285 285 285
Wind_Speed
13 13 11 9 6 5 4 5 6 5 7 5 5 9 8 8 10 11 9 16 18 16 15 15 14 14 14 12 12 12 13 14 14 14 13 13 12 13
11 13 11 7 8 6 5 5 4 5 4 8 8 3 7 7 8 10 10 12 18 18 18 15 15 15 14 12 12 12 12 13 14 14 14 14 13 14
14 13 14 12 8 7 5 5 5 4 5 2 3 5 6 6 6 7 7 8 8 18 17 16 15 15 14 13 13 13 13 13 14 15 15 15 15 15
16 14 15 9 11 9 8 10 8 6 5 7 4 4 5 6 5 8 7 7 8 13 18 15 17 17 15 15 14 14 14 14 13 13 14 15 17 17
17 17 16 14 12 8 9 8 7 5 4 4 4 2 3 3 3 3 5 6 7 10 17 16 18 18 17 16 16 14 15 13 14 14 15 15 15 17
17 17 17 16 17 14 11 12 10 8 7 4 3 3 3 3 3 4 4 4 6 6 8 11 15 16 16 16 16 15 17 15 15 15 15 14 13 15
16 17 16 16 18 16 11 13 11 10 7 9 5 3 4 3 9 4 7 5 5 4 5 6 4 6 7 13 13 15 16 16 16 15 14 12 11 13
17 16 16 16 16 19 19 16 17 15 13 9 9 9 10 7 5 6 6 4 4 6 7 5 6 6 6 7 13 15 15 16 15 11 12 11 11 11
18 17 15 12 14 14 18 18 19 20 18 16 13 13 9 12 8 7 9 7 7 3 8 6 5 7 5 7 13 15 15 13 11 10 10 9 11 11
19 18 18 17 15 16 15 13 13 14 13 10 15 14 12 10 14 13 13 7 3 2 4 5 3 5 3 5 9 12 12 11 9 8 8 9 8 9
15 16 17 18 16 19 15 14 13 10 3 6 7 6 10 11 10 6 6 8 4 4 4 5 3 2 2 2 2 5 8 8 8 7 6 7 9 7
12 14 17 17 15 20 17 15 13 13 10 5 2 2 5 7 14 12 9 9 4 1 4 5 3 4 1 2 1 0 2 3 5 6 7 6 6 2
12 10 11 18 20 22 19 14 15 9 6 6 4 3 3 5 7 7 8 10 6 3 4 6 3 3 2 1 1 1 2 2 2 1 2 3 5 4
15 12 12 18 20 21 13 12 15 8 7 6 5 4 5 6 4 4 5 4 4 4 9 5 4 5 4 2 2 1 1 0 2 2 0 2 5 7
12 13 14 18 16 12 13 17 11 6 7 5 7 6 4 4 6 6 4 6 5 3 5 4 5 5 4 4 4 3 2 2 2 3 1 1 2 2
4 8 8 9 6 8 7 9 6 7 7 7 6 5 5 5 3 3 3 3 4 2 4 4 6 6 3 2 3 3 3 1 1 1 1 1 2 3
4 1 6 6 7 6 5 6 5 6 6 6 6 7 6 7 4 3 3 3 3 4 3 2 4 5 4 7 2 3 3 2 0 2 2 2 2 4
8 3 3 3 7 8 8 8 6 8 8 8 7 8 8 7 6 4 3 3 4 3 3 3 3 3 3 2 2 3 2 2 1 2 2 2 2 4
7 4 4 5 5 3 4 7 5 6 7 6 7 7 7 7 7 4 4 4 3 3 2 2 2 3 3 3 2 2 4 2 2 1 2 3 3 5
9 7 4 3 5 3 6 2 6 4 5 6 5 5 6 8 7 6 4 5 4 2 2 2 3 2 3 4 2 2 3 2 1 2 3 2 5 12
8 8 7 7 4 2 4 4 4 4 2 5 5 6 6 7 6 6 6 6 5 2 2 2 3 5 3 3 2 1 3 8 7 4 3 2 2 2
8 7 6 5 6 5 3 4 5 5 2 4 5 5 4 5 6 6 5 6 3 3 3 3 3 4 3 3 2 2 2 2 5 8 10 10 3 3
3 4 5 6 5 3 3 5 5 3 2 3 3 4 4 4 5 5 4 4 4 4 3 3 3 3 3 3 3 2 3 2 1 3 4 10 10 12
Wind_Direction
197 200 201 205 194 195 170 156 150 177 224 230 215 209 202 192 194 190 195 198 198 199 206 207 210 211 215 220 230 239 248 255 260 266 271 276 281 285
196 192 200 208 207 200 178 186 171 160 209 203 216 176 192 199 187 185 194 187 198 197 204 205 206 213 217 215 221 229 236 244 251 258 264 271 277 283
193 196 199 201 204 198 181 185 187 157 195 260 188 182 184 183 174 186 184 191 194 204 205 203 203 210 217 211 220 224 232 236 242 251 259 266 273 279
197 196 204 194 205 194 190 198 199 194 155 216 184 196 194 203 172 177 186 188 198 198 206 205 206 210 214 214 216 221 231 235 239 246 256 260 267 273
195 200 204 194 202 193 198 195 203 191 175 157 201 151 182 154 133 169 180 196 199 200 203 205 214 215 215 217 218 219 232 234 234 241 247 250 255 262
195 202 205 201 206 200 197 203 201 194 197 178 168 171 157 192 142 161 187 198 200 202 199 203 214 220 222 220 223 219 231 234 237 240 242 246 248 256
200 201 207 204 201 196 194 204 187 197 194 203 190 164 176 161 200 171 204 180 200 178 196 209 191 201 214 224 234 224 231 233 237 241 247 247 249 256
197 203 206 201 197 195 197 192 190 190 201 200 207 213 211 199 161 182 173 160 234 195 201 214 176 212 215 208 216 218 221 230 237 235 242 246 252 254
203 203 206 206 196 198 208 201 196 195 193 192 195 209 203 204 175 179 192 192 215 175 186 222 172 222 202 221 213 214 224 230 227 217 224 236 244 247
208 206 205 207 199 197 200 203 208 206 204 196 203 206 207 189 193 197 199 190 79 151 141 191 162 209 190 225 219 220 220 220 215 203 213 224 236 252
211 212 208 211 203 195 193 203 205 210 178 238 264 219 187 177 182 144 174 171 202 210 178 146 186 169 186 204 212 183 179 183 179 187 218 235 242 252
202 207 212 213 175 177 196 196 202 207 186 178 137 58 201 195 177 190 182 193 139 47 218 144 149 144 309 298 325 86 129 173 183 208 227 242 248 280
205 204 206 198 183 183 192 194 206 167 161 169 143 152 165 182 188 208 186 186 172 165 178 122 156 136 96 134 344 317 166 167 121 45 325 341 321 230
209 204 205 189 185 184 183 171 156 140 138 142 147 167 189 194 184 160 151 143 169 128 164 166 141 155 134 87 186 319 358 212 144 211 47 334 312 296
205 197 178 176 182 174 171 150 146 145 140 146 182 192 185 155 124 102 85 101 87 86 155 154 141 142 136 152 164 176 117 283 207 196 176 313 258 278
80 127 147 146 159 145 128 141 149 154 162 173 184 153 133 143 140 118 107 122 98 71 67 127 136 136 122 142 144 153 176 223 255 305 247 293 300 283
11 70 146 143 138 136 134 148 139 139 151 153 157 161 161 157 147 139 115 118 119 151 149 83 83 95 102 140 150 185 146 204 299 307 3 312 260 276
86 334 21 1 160 159 159 160 159 161 156 159 164 164 165 165 147 142 117 133 130 152 142 158 123 77 45 350 150 141 132 142 207 230 195 195 256 263
75 69 31 82 354 90 169 158 170 151 140 154 160 151 142 139 131 133 121 115 102 112 99 126 121 113 118 176 271 164 135 187 201 282 231 189 241 287
46 39 37 35 66 322 87 33 88 110 111 126 112 125 136 139 126 123 119 115 122 108 110 96 95 71 126 190 164 198 231 164 155 220 250 225 233 259
40 43 27 42 25 340 46 87 87 65 50 108 109 124 122 125 120 122 123 123 111 110 130 134 156 154 125 94 92 183 237 218 184 212 260 259 237 273
26 36 36 61 65 18 59 55 73 74 60 78 104 108 98 117 129 130 137 147 142 137 134 140 140 129 139 174 216 214 220 290 304 282 235 205 189 279
67 56 42 34 42 56 68 67 55 72 89 66 60 104 117 116 118 130 143 139 156 165 162 166 163 151 179 193 188 222 254 245 230 298 289 277 261 251